Regional Weather Roundup
Issued by NWS

Home | Current Version | Previous Version | Text Only | Print | Product List | Glossary Off
Versions: 1 2 3 4 5 6 7 8 9 10 11 12 13 14 15 16 17 18 19 20 21 22 23 24 25 26 27 28 29 30 31 32 33 34 35 36 37 38 39 40 41 42 43 44 45 46 47 48 49 50

000
ASUS45 KCYS 031310
RWRWY

WYOMING REGIONAL WEATHER ROUNDUP
NATIONAL WEATHER SERVICE CHEYENNE WY
700 AM MDT TUE MAY 03 2016

NOTE:  "FAIR" INDICATES FEW OR NO CLOUDS BELOW 12,000 FEET
WITH NO SIGNIFICANT WEATHER AND/OR OBSTRUCTIONS TO VISIBILITY.

WYZ001-031400-
YELLOWSTONE NATIONAL PARK

CITY           SKY/WX    TMP DP  RH WIND       PRES   REMARKS
LK YELLOWSTONE   N/A     25  21  85 CALM      30.36R
W YELLOWSTONE  NOT AVBL

$$
WYZ002>013-054>058-071-098>099-031400-
NORTHERN WYOMING

CITY           SKY/WX    TMP DP  RH WIND       PRES   REMARKS
JACKSON        FAIR      28  25  86 CALM      30.32R
CODY           FAIR      46  28  49 SW3       30.20R
GREYBULL       FAIR      39  29  67 E6        30.19R WCI  35
WORLAND        FAIR      42  37  82 S5        30.19R
SHERIDAN       FAIR      43  36  76 CALM      30.17R
BUFFALO        FAIR      49  33  54 W6        30.20
GILLETTE       FAIR      48  36  63 W14       30.15R
HULETT         FAIR      43  37  81 S7        30.15R
NEWCASTLE      FAIR      43  32  65 N9        30.14R

$$
WYZ014>020-022>026-101>103-031400-
CENTRAL WYOMING

CITY           SKY/WX    TMP DP  RH WIND       PRES   REMARKS
BIG PINEY      FAIR      28  19  69 CALM      30.31R
PINEDALE       FAIR      28  23  80 CALM      30.31R
DUBOIS         FAIR      32  23  69 NW10      30.29R WCI  24
LANDER         FAIR      41  27  57 NW3       30.22R
RIVERTON       FAIR      42  30  62 W12       30.23R
CASPER         FAIR      37  32  82 W7        30.22R WCI  32
DOUGLAS        FAIR      39  35  86 NW10      30.21R WCI  32

$$
WYZ021-027>030-104>119-031400-
SOUTHERN WYOMING

CITY           SKY/WX    TMP DP  RH WIND       PRES   REMARKS
EVANSTON       FAIR      38  24  57 SE5       30.29R WCI  34
FORT BRIDGER   SUNNY     39  27  60 W6        30.31R WCI  35
ROCK SPRINGS   FAIR      34  22  61 S3        30.28R
DIXON          FAIR      31  25  78 E3        30.30S
RAWLINS        FAIR      34  28  79 CALM      30.27R
SARATOGA       FAIR      30  27  86 SE3       30.29R
LARAMIE        FAIR      28  26  92 S3        30.25R
CHEYENNE       PTSUNNY   43  29  57 NW10      30.19R
TORRINGTON     FAIR      41  35  79 SE3       30.14R
PINE BLUFFS    FAIR      39  32  75 NW9       30.16R WCI  33

$$



USA.gov is the U.S. government's official web portal to all federal, state and local government web resources and services.